Time,TemperatureF,DewpointF,PressureIn,WindDirection,WindDirectionDegrees,WindSpeedMPH,WindSpeedGustMPH,Humidity,HourlyPrecipIn,Conditions,Clouds,dailyrainin,SoftwareType,DateUTC
2013-04-24 00:00:00,30.3,26.0,30.18,WSW,252,1.0,2.0,84,0.00,,,0.00,Wunderground v.1.15,2013-04-24 05:00:00,
2013-04-24 00:05:00,30.3,26.0,30.18,West,260,2.0,2.0,84,0.00,,,0.00,Wunderground v.1.15,2013-04-24 05:05:00,
2013-04-24 00:10:00,30.2,25.9,30.18,West,260,1.0,1.0,84,0.00,,,0.00,Wunderground v.1.15,2013-04-24 05:10:00,
2013-04-24 00:20:00,30.0,26.0,30.18,West,259,1.0,1.0,85,0.00,,,0.00,Wunderground v.1.15,2013-04-24 05:20:00,
2013-04-24 00:25:00,29.9,25.9,30.18,WSW,257,2.0,2.0,85,0.00,,,0.00,Wunderground v.1.15,2013-04-24 05:25:00,
2013-04-24 00:30:00,29.8,26.1,30.18,WSW,256,2.0,2.0,86,0.00,,,0.00,Wunderground v.1.15,2013-04-24 05:30:00,
2013-04-24 00:35:00,29.7,26.0,30.18,West,262,2.0,2.0,86,0.00,,,0.00,Wunderground v.1.15,2013-04-24 05:35:00,
2013-04-24 00:40:00,29.6,25.9,30.17,West,259,2.0,2.0,86,0.00,,,0.00,Wunderground v.1.15,2013-04-24 05:40:00,
2013-04-24 00:50:00,29.4,26.0,30.17,West,271,1.0,2.0,87,0.00,,,0.00,Wunderground v.1.15,2013-04-24 05:50:00,
2013-04-24 00:55:00,29.4,26.0,30.17,West,270,1.0,2.0,87,0.00,,,0.00,Wunderground v.1.15,2013-04-24 05:55:00,
2013-04-24 01:00:00,29.4,26.0,30.17,West,271,1.0,1.0,87,0.00,,,0.00,Wunderground v.1.15,2013-04-24 06:00:00,
2013-04-24 01:05:00,29.3,25.9,30.17,West,276,1.0,1.0,87,0.00,,,0.00,Wunderground v.1.15,2013-04-24 06:05:00,
2013-04-24 01:15:00,29.3,26.2,30.17,West,266,1.0,1.0,88,0.00,,,0.00,Wunderground v.1.15,2013-04-24 06:15:00,
2013-04-24 01:20:00,29.3,26.2,30.17,West,266,1.0,1.0,88,0.00,,,0.00,Wunderground v.1.15,2013-04-24 06:20:00,
2013-04-24 01:25:00,29.2,26.1,30.17,West,266,1.0,1.0,88,0.00,,,0.00,Wunderground v.1.15,2013-04-24 06:25:00,
2013-04-24 01:30:00,29.2,26.1,30.16,West,268,1.0,2.0,88,0.00,,,0.00,Wunderground v.1.15,2013-04-24 06:30:00,
2013-04-24 01:35:00,29.2,26.1,30.16,West,268,1.0,3.0,88,0.00,,,0.00,Wunderground v.1.15,2013-04-24 06:35:00,
2013-04-24 01:40:00,29.2,26.1,30.16,West,277,1.0,1.0,88,0.00,,,0.00,Wunderground v.1.15,2013-04-24 06:40:00,
2013-04-24 01:45:00,29.2,25.8,30.16,West,277,1.0,1.0,87,0.00,,,0.00,Wunderground v.1.15,2013-04-24 06:45:00,
2013-04-24 01:50:00,29.3,26.2,30.16,West,264,0.0,1.0,88,0.00,,,0.00,Wunderground v.1.15,2013-04-24 06:50:00,
2013-04-24 02:00:00,29.3,26.2,30.16,West,264,0.0,0.0,88,0.00,,,0.00,Wunderground v.1.15,2013-04-24 07:00:00,
2013-04-24 02:05:00,29.3,26.2,30.16,West,264,0.0,2.0,88,0.00,,,0.00,Wunderground v.1.15,2013-04-24 07:05:00,
2013-04-24 02:15:00,29.2,25.8,30.16,WSW,256,2.0,3.0,87,0.00,,,0.00,Wunderground v.1.15,2013-04-24 07:15:00,
2013-04-24 02:25:00,29.1,26.0,30.16,WSW,253,2.0,4.0,88,0.00,,,0.00,Wunderground v.1.15,2013-04-24 07:25:00,
2013-04-24 02:30:00,29.1,26.0,30.15,WSW,253,2.0,4.0,88,0.00,,,0.00,Wunderground v.1.15,2013-04-24 07:30:00,
2013-04-24 02:35:00,29.0,25.9,30.15,WSW,248,2.0,4.0,88,0.00,,,0.00,Wunderground v.1.15,2013-04-24 07:35:00,
2013-04-24 02:40:00,28.9,25.8,30.15,WSW,247,1.0,3.0,88,0.00,,,0.00,Wunderground v.1.15,2013-04-24 07:40:00,
2013-04-24 02:45:00,28.7,25.6,30.15,WSW,242,1.0,3.0,88,0.00,,,0.00,Wunderground v.1.15,2013-04-24 07:45:00,
2013-04-24 02:50:00,28.6,25.8,30.14,WSW,245,2.0,3.0,89,0.00,,,0.00,Wunderground v.1.15,2013-04-24 07:50:00,
2013-04-24 02:55:00,28.5,25.7,30.15,WSW,242,2.0,3.0,89,0.00,,,0.00,Wunderground v.1.15,2013-04-24 07:55:00,
2013-04-24 03:05:00,28.6,25.8,30.14,SW,219,2.0,3.0,89,0.00,,,0.00,Wunderground v.1.15,2013-04-24 08:05:00,
2013-04-24 03:15:00,28.5,25.7,30.15,SSW,208,3.0,4.0,89,0.00,,,0.00,Wunderground v.1.15,2013-04-24 08:15:00,
2013-04-24 03:20:00,28.5,25.7,30.14,SSW,199,3.0,3.0,89,0.00,,,0.00,Wunderground v.1.15,2013-04-24 08:20:00,
2013-04-24 03:25:00,28.5,25.7,30.14,SSW,204,3.0,3.0,89,0.00,,,0.00,Wunderground v.1.15,2013-04-24 08:25:00,
2013-04-24 03:30:00,28.4,25.8,30.14,South,189,3.0,3.0,90,0.00,,,0.00,Wunderground v.1.15,2013-04-24 08:30:00,
2013-04-24 03:35:00,28.4,25.8,30.14,SSW,210,3.0,4.0,90,0.00,,,0.00,Wunderground v.1.15,2013-04-24 08:35:00,
2013-04-24 03:40:00,28.4,25.8,30.14,SSW,200,3.0,4.0,90,0.00,,,0.00,Wunderground v.1.15,2013-04-24 08:40:00,
2013-04-24 03:45:00,28.4,25.6,30.14,SSW,199,4.0,5.0,89,0.00,,,0.00,Wunderground v.1.15,2013-04-24 08:45:00,
2013-04-24 03:50:00,28.4,25.6,30.14,SSW,195,4.0,4.0,89,0.00,,,0.00,Wunderground v.1.15,2013-04-24 08:50:00,
2013-04-24 03:55:00,28.4,25.8,30.14,SSW,195,4.0,4.0,90,0.00,,,0.00,Wunderground v.1.15,2013-04-24 08:55:00,
2013-04-24 04:00:00,28.4,25.6,30.14,SSW,192,4.0,4.0,89,0.00,,,0.00,Wunderground v.1.15,2013-04-24 09:00:00,
2013-04-24 04:05:00,28.4,25.8,30.14,SSW,210,4.0,5.0,90,0.00,,,0.00,Wunderground v.1.15,2013-04-24 09:05:00,
2013-04-24 04:15:00,28.5,25.7,30.14,SW,219,5.0,5.0,89,0.00,,,0.00,Wunderground v.1.15,2013-04-24 09:15:00,
2013-04-24 04:20:00,28.5,25.7,30.14,SSW,208,5.0,5.0,89,0.00,,,0.00,Wunderground v.1.15,2013-04-24 09:20:00,
2013-04-24 04:25:00,28.5,25.7,30.14,SSW,195,5.0,5.0,89,0.00,,,0.00,Wunderground v.1.15,2013-04-24 09:25:00,
2013-04-24 04:30:00,28.5,25.7,30.14,SSW,206,5.0,5.0,89,0.00,,,0.00,Wunderground v.1.15,2013-04-24 09:30:00,
2013-04-24 04:35:00,28.4,25.6,30.13,SSW,210,5.0,5.0,89,0.00,,,0.00,Wunderground v.1.15,2013-04-24 09:35:00,
2013-04-24 04:40:00,28.3,25.7,30.13,SSW,195,5.0,5.0,90,0.00,,,0.00,Wunderground v.1.15,2013-04-24 09:40:00,
2013-04-24 04:45:00,28.2,25.6,30.13,SSW,208,5.0,5.0,90,0.00,,,0.00,Wunderground v.1.15,2013-04-24 09:45:00,
2013-04-24 04:50:00,28.1,25.5,30.13,SSW,198,5.0,5.0,90,0.00,,,0.00,Wunderground v.1.15,2013-04-24 09:50:00,
2013-04-24 04:55:00,28.1,25.5,30.13,SSW,205,5.0,5.0,90,0.00,,,0.00,Wunderground v.1.15,2013-04-24 09:55:00,
2013-04-24 05:00:00,28.1,25.5,30.13,SSW,207,4.0,4.0,90,0.00,,,0.00,Wunderground v.1.15,2013-04-24 10:00:00,
2013-04-24 05:05:00,28.1,25.5,30.13,SSW,204,4.0,4.0,90,0.00,,,0.00,Wunderground v.1.15,2013-04-24 10:05:00,
2013-04-24 05:15:00,28.2,25.6,30.13,SW,220,4.0,5.0,90,0.00,,,0.00,Wunderground v.1.15,2013-04-24 10:15:00,
2013-04-24 05:20:00,28.3,25.7,30.13,SW,217,4.0,6.0,90,0.00,,,0.00,Wunderground v.1.15,2013-04-24 10:20:00,
2013-04-24 05:25:00,28.3,25.7,30.13,SSW,208,5.0,6.0,90,0.00,,,0.00,Wunderground v.1.15,2013-04-24 10:25:00,
2013-04-24 05:30:00,28.3,25.7,30.13,SSW,212,5.0,7.0,90,0.00,,,0.00,Wunderground v.1.15,2013-04-24 10:30:00,
2013-04-24 05:35:00,28.3,25.7,30.13,SW,226,5.0,7.0,90,0.00,,,0.00,Wunderground v.1.15,2013-04-24 10:35:00,
2013-04-24 05:40:00,28.2,25.4,30.13,SW,216,4.0,5.0,89,0.00,,,0.00,Wunderground v.1.15,2013-04-24 10:40:00,
2013-04-24 05:45:00,28.2,25.6,30.13,SSW,208,4.0,5.0,90,0.00,,,0.00,Wunderground v.1.15,2013-04-24 10:45:00,
2013-04-24 05:50:00,28.2,25.4,30.13,SSW,196,4.0,5.0,89,0.00,,,0.00,Wunderground v.1.15,2013-04-24 10:50:00,
2013-04-24 05:55:00,28.2,25.4,30.12,SW,226,4.0,5.0,89,0.00,,,0.00,Wunderground v.1.15,2013-04-24 10:55:00,
2013-04-24 06:00:00,28.3,25.5,30.12,SSW,213,4.0,4.0,89,0.00,,,0.00,Wunderground v.1.15,2013-04-24 11:00:00,
2013-04-24 06:05:00,28.3,25.5,30.12,SW,214,4.0,5.0,89,0.00,,,0.00,Wunderground v.1.15,2013-04-24 11:05:00,
2013-04-24 06:15:00,28.2,25.1,30.12,SW,218,4.0,4.0,88,0.00,,,0.00,Wunderground v.1.15,2013-04-24 11:15:00,
2013-04-24 06:20:00,28.2,25.1,30.12,SSW,205,4.0,4.0,88,0.00,,,0.00,Wunderground v.1.15,2013-04-24 11:20:00,
2013-04-24 06:25:00,28.2,25.1,30.11,SW,216,4.0,4.0,88,0.00,,,0.00,Wunderground v.1.15,2013-04-24 11:25:00,
2013-04-24 06:30:00,28.2,25.1,30.11,SW,216,4.0,5.0,88,0.00,,,0.00,Wunderground v.1.15,2013-04-24 11:30:00,
2013-04-24 06:35:00,28.3,25.2,30.12,SW,220,4.0,5.0,88,0.00,,,0.00,Wunderground v.1.15,2013-04-24 11:35:00,
2013-04-24 06:40:00,28.3,25.2,30.12,SW,226,4.0,4.0,88,0.00,,,0.00,Wunderground v.1.15,2013-04-24 11:40:00,
2013-04-24 06:45:00,28.4,25.0,30.11,SW,216,3.0,4.0,87,0.00,,,0.00,Wunderground v.1.15,2013-04-24 11:45:00,
2013-04-24 06:50:00,28.5,25.1,30.11,SW,223,3.0,3.0,87,0.00,,,0.00,Wunderground v.1.15,2013-04-24 11:50:00,
2013-04-24 06:55:00,28.7,25.3,30.12,WSW,248,3.0,5.0,87,0.00,,,0.00,Wunderground v.1.15,2013-04-24 11:55:00,
2013-04-24 07:00:00,28.8,25.4,30.12,SW,235,4.0,4.0,87,0.00,,,0.00,Wunderground v.1.15,2013-04-24 12:00:00,
2013-04-24 07:05:00,29.0,25.6,30.11,WSW,239,4.0,5.0,87,0.00,,,0.00,Wunderground v.1.15,2013-04-24 12:05:00,
2013-04-24 07:15:00,29.5,25.8,30.11,SW,225,4.0,5.0,86,0.00,,,0.00,Wunderground v.1.15,2013-04-24 12:15:00,
2013-04-24 07:20:00,29.7,26.0,30.11,SW,234,4.0,4.0,86,0.00,,,0.00,Wunderground v.1.15,2013-04-24 12:20:00,
2013-04-24 07:25:00,29.9,25.9,30.11,SSW,206,4.0,4.0,85,0.00,,,0.00,Wunderground v.1.15,2013-04-24 12:25:00,
2013-04-24 07:30:00,30.2,26.2,30.11,SW,226,5.0,6.0,85,0.00,,,0.00,Wunderground v.1.15,2013-04-24 12:30:00,
2013-04-24 07:35:00,30.3,26.3,30.11,SW,233,5.0,6.0,85,0.00,,,0.00,Wunderground v.1.15,2013-04-24 12:35:00,
2013-04-24 07:40:00,30.6,26.6,30.11,SW,218,5.0,5.0,85,0.00,,,0.00,Wunderground v.1.15,2013-04-24 12:40:00,
2013-04-24 07:45:00,30.8,26.8,30.11,SW,236,5.0,6.0,85,0.00,,,0.00,Wunderground v.1.15,2013-04-24 12:45:00,
2013-04-24 07:55:00,31.5,27.2,30.11,WSW,247,6.0,6.0,84,0.00,,,0.00,Wunderground v.1.15,2013-04-24 12:55:00,
2013-04-24 08:00:00,31.7,27.4,30.11,WSW,253,7.0,7.0,84,0.00,,,0.00,Wunderground v.1.15,2013-04-24 13:00:00,
2013-04-24 08:05:00,32.0,27.4,30.11,WSW,237,7.0,7.0,83,0.00,,,0.00,Wunderground v.1.15,2013-04-24 13:05:00,
2013-04-24 08:15:00,32.7,27.8,30.10,WSW,247,6.0,8.0,82,0.00,,,0.00,Wunderground v.1.15,2013-04-24 13:15:00,
2013-04-24 08:20:00,33.0,28.1,30.10,WSW,242,7.0,7.0,82,0.00,,,0.00,Wunderground v.1.15,2013-04-24 13:20:00,
2013-04-24 08:25:00,33.5,28.0,30.11,WSW,251,6.0,12.0,80,0.00,,,0.00,Wunderground v.1.15,2013-04-24 13:25:00,
2013-04-24 08:35:00,34.3,28.5,30.10,West,267,7.0,7.0,79,0.00,,,0.00,Wunderground v.1.15,2013-04-24 13:35:00,
2013-04-24 08:40:00,34.6,29.1,30.10,WSW,255,6.0,7.0,80,0.00,,,0.00,Wunderground v.1.15,2013-04-24 13:40:00,
2013-04-24 08:45:00,35.0,29.1,30.10,WSW,253,5.0,7.0,79,0.00,,,0.00,Wunderground v.1.15,2013-04-24 13:45:00,
2013-04-24 08:50:00,35.5,29.3,30.10,West,259,6.0,7.0,78,0.00,,,0.00,Wunderground v.1.15,2013-04-24 13:50:00,
2013-04-24 08:55:00,35.9,29.7,30.10,West,260,7.0,10.0,78,0.00,,,0.00,Wunderground v.1.15,2013-04-24 13:55:00,
2013-04-24 09:00:00,36.3,29.8,30.09,West,262,7.0,7.0,77,0.00,,,0.00,Wunderground v.1.15,2013-04-24 14:00:00,
2013-04-24 09:05:00,36.7,29.5,30.10,WSW,237,8.0,8.0,75,0.00,,,0.00,Wunderground v.1.15,2013-04-24 14:05:00,
2013-04-24 09:15:00,37.2,30.0,30.09,West,264,8.0,9.0,75,0.00,,,0.00,Wunderground v.1.15,2013-04-24 14:15:00,
2013-04-24 09:20:00,37.5,30.3,30.09,SW,229,7.0,7.0,75,0.00,,,0.00,Wunderground v.1.15,2013-04-24 14:20:00,
2013-04-24 09:25:00,38.0,30.8,30.09,WSW,253,8.0,10.0,75,0.00,,,0.00,Wunderground v.1.15,2013-04-24 14:25:00,
2013-04-24 09:30:00,38.3,30.4,30.09,WSW,253,9.0,10.0,73,0.00,,,0.00,Wunderground v.1.15,2013-04-24 14:30:00,
2013-04-24 09:40:00,38.9,30.6,30.08,WSW,241,9.0,9.0,72,0.00,,,0.00,Wunderground v.1.15,2013-04-24 14:40:00,
2013-04-24 09:45:00,39.1,31.2,30.08,WSW,249,10.0,10.0,73,0.00,,,0.00,Wunderground v.1.15,2013-04-24 14:45:00,
2013-04-24 09:50:00,39.5,30.5,30.08,West,263,10.0,10.0,70,0.00,,,0.00,Wunderground v.1.15,2013-04-24 14:50:00,
2013-04-24 09:55:00,39.7,30.7,30.09,West,260,10.0,10.0,70,0.00,,,0.00,Wunderground v.1.15,2013-04-24 14:55:00,
2013-04-24 10:00:00,40.2,31.2,30.08,WNW,289,10.0,11.0,70,0.00,,,0.00,Wunderground v.1.15,2013-04-24 15:00:00,
2013-04-24 10:05:00,40.5,30.4,30.08,WSW,253,10.0,12.0,67,0.00,,,0.00,Wunderground v.1.15,2013-04-24 15:05:00,
2013-04-24 10:15:00,41.0,30.9,30.08,WSW,246,11.0,14.0,67,0.00,,,0.00,Wunderground v.1.15,2013-04-24 15:15:00,
2013-04-24 10:20:00,41.2,31.4,30.08,West,259,11.0,11.0,68,0.00,,,0.00,Wunderground v.1.15,2013-04-24 15:20:00,
2013-04-24 10:25:00,41.6,32.2,30.08,WSW,245,10.0,16.0,69,0.00,,,0.00,Wunderground v.1.15,2013-04-24 15:25:00,
2013-04-24 10:30:00,41.9,31.7,30.08,West,281,11.0,11.0,67,0.00,,,0.00,Wunderground v.1.15,2013-04-24 15:30:00,
2013-04-24 10:35:00,42.1,31.6,30.08,WSW,258,12.0,12.0,66,0.00,,,0.00,Wunderground v.1.15,2013-04-24 15:35:00,
2013-04-24 10:40:00,42.5,31.9,30.07,WSW,241,12.0,14.0,66,0.00,,,0.00,Wunderground v.1.15,2013-04-24 15:40:00,
2013-04-24 10:45:00,42.5,30.8,30.08,WSW,244,12.0,14.0,63,0.00,,,0.00,Wunderground v.1.15,2013-04-24 15:45:00,
2013-04-24 10:50:00,43.0,32.4,30.07,WSW,247,12.0,12.0,66,0.00,,,0.00,Wunderground v.1.15,2013-04-24 15:50:00,
2013-04-24 10:55:00,43.7,32.7,30.07,SW,230,11.0,15.0,65,0.00,,,0.00,Wunderground v.1.15,2013-04-24 15:55:00,
2013-04-24 11:05:00,44.3,32.1,30.07,West,272,11.0,13.0,62,0.00,,,0.00,Wunderground v.1.15,2013-04-24 16:05:00,
2013-04-24 11:15:00,44.7,32.5,30.07,WSW,241,13.0,21.0,62,0.00,,,0.00,Wunderground v.1.15,2013-04-24 16:15:00,
2013-04-24 11:20:00,45.3,30.5,30.07,WSW,248,13.0,17.0,56,0.00,,,0.00,Wunderground v.1.15,2013-04-24 16:20:00,
2013-04-24 11:30:00,46.0,31.6,30.06,SSW,204,13.0,13.0,57,0.00,,,0.00,Wunderground v.1.15,2013-04-24 16:30:00,
2013-04-24 11:35:00,45.9,31.1,30.06,SW,225,13.0,13.0,56,0.00,,,0.00,Wunderground v.1.15,2013-04-24 16:35:00,
2013-04-24 11:40:00,46.1,30.4,30.06,SW,227,14.0,18.0,54,0.00,,,0.00,Wunderground v.1.15,2013-04-24 16:40:00,
2013-04-24 11:45:00,46.4,29.2,30.06,SW,229,14.0,18.0,51,0.00,,,0.00,Wunderground v.1.15,2013-04-24 16:45:00,
2013-04-24 11:50:00,45.9,30.6,30.06,WSW,239,16.0,16.0,55,0.00,,,0.00,Wunderground v.1.15,2013-04-24 16:50:00,
2013-04-24 11:55:00,46.4,31.5,30.06,SW,234,15.0,16.0,56,0.00,,,0.00,Wunderground v.1.15,2013-04-24 16:55:00,
2013-04-24 12:00:00,46.5,32.1,30.06,SW,220,14.0,14.0,57,0.00,,,0.00,Wunderground v.1.15,2013-04-24 17:00:00,
2013-04-24 12:05:00,47.0,30.7,30.05,SW,235,14.0,23.0,53,0.00,,,0.00,Wunderground v.1.15,2013-04-24 17:05:00,
2013-04-24 12:15:00,46.7,29.5,30.05,SW,227,16.0,20.0,51,0.00,,,0.00,Wunderground v.1.15,2013-04-24 17:15:00,
2013-04-24 12:20:00,47.1,30.4,30.05,WSW,245,15.0,21.0,52,0.00,,,0.00,Wunderground v.1.15,2013-04-24 17:20:00,
2013-04-24 12:25:00,47.6,32.7,30.04,SW,224,13.0,21.0,56,0.00,,,0.00,Wunderground v.1.15,2013-04-24 17:25:00,
2013-04-24 12:30:00,47.6,30.8,30.04,WSW,243,13.0,13.0,52,0.00,,,0.00,Wunderground v.1.15,2013-04-24 17:30:00,
2013-04-24 12:35:00,47.4,31.1,30.04,SW,218,14.0,14.0,53,0.00,,,0.00,Wunderground v.1.15,2013-04-24 17:35:00,
2013-04-24 12:40:00,47.6,31.3,30.03,WSW,248,13.0,13.0,53,0.00,,,0.00,Wunderground v.1.15,2013-04-24 17:40:00,
2013-04-24 12:45:00,48.2,32.3,30.03,WSW,241,13.0,13.0,54,0.00,,,0.00,Wunderground v.1.15,2013-04-24 17:45:00,
2013-04-24 12:50:00,48.2,30.9,30.03,WSW,247,13.0,14.0,51,0.00,,,0.00,Wunderground v.1.15,2013-04-24 17:50:00,
2013-04-24 13:00:00,48.1,31.3,30.03,WSW,248,13.0,13.0,52,0.00,,,0.00,Wunderground v.1.15,2013-04-24 18:00:00,
2013-04-24 13:05:00,48.0,30.7,30.03,SSW,199,13.0,13.0,51,0.00,,,0.00,Wunderground v.1.15,2013-04-24 18:05:00,
2013-04-24 13:15:00,48.2,30.4,30.03,SW,235,12.0,20.0,50,0.00,,,0.00,Wunderground v.1.15,2013-04-24 18:15:00,
2013-04-24 13:20:00,48.5,31.7,30.03,SW,223,13.0,16.0,52,0.00,,,0.00,Wunderground v.1.15,2013-04-24 18:20:00,
2013-04-24 13:25:00,48.1,29.3,30.02,WSW,239,15.0,16.0,48,0.00,,,0.00,Wunderground v.1.15,2013-04-24 18:25:00,
2013-04-24 13:30:00,48.6,32.7,30.02,SSW,195,15.0,18.0,54,0.00,,,0.00,Wunderground v.1.15,2013-04-24 18:30:00,
2013-04-24 13:35:00,48.4,31.1,30.02,WSW,239,14.0,18.0,51,0.00,,,0.00,Wunderground v.1.15,2013-04-24 18:35:00,
2013-04-24 13:40:00,48.3,31.0,30.02,WSW,247,13.0,13.0,51,0.00,,,0.00,Wunderground v.1.15,2013-04-24 18:40:00,
2013-04-24 13:45:00,48.2,32.3,30.02,SSW,205,14.0,14.0,54,0.00,,,0.00,Wunderground v.1.15,2013-04-24 18:45:00,
2013-04-24 13:50:00,48.1,30.3,30.02,SW,216,14.0,14.0,50,0.00,,,0.00,Wunderground v.1.15,2013-04-24 18:50:00,
2013-04-24 13:55:00,48.0,30.2,30.02,SW,214,14.0,18.0,50,0.00,,,0.00,Wunderground v.1.15,2013-04-24 18:55:00,
2013-04-24 14:00:00,48.0,31.7,30.02,SW,223,14.0,14.0,53,0.00,,,0.00,Wunderground v.1.15,2013-04-24 19:00:00,
2013-04-24 14:05:00,48.4,32.0,30.02,SW,217,13.0,19.0,53,0.00,,,0.00,Wunderground v.1.15,2013-04-24 19:05:00,
2013-04-24 14:15:00,48.0,30.7,30.02,SSW,205,13.0,16.0,51,0.00,,,0.00,Wunderground v.1.15,2013-04-24 19:15:00,
2013-04-24 14:20:00,47.6,30.3,30.02,WSW,238,12.0,14.0,51,0.00,,,0.00,Wunderground v.1.15,2013-04-24 19:20:00,
2013-04-24 14:25:00,47.4,31.1,30.02,SW,235,12.0,14.0,53,0.00,,,0.00,Wunderground v.1.15,2013-04-24 19:25:00,
2013-04-24 14:30:00,47.3,31.0,30.02,SW,233,12.0,12.0,53,0.00,,,0.00,Wunderground v.1.15,2013-04-24 19:30:00,
2013-04-24 14:35:00,47.3,29.6,30.02,WSW,239,13.0,16.0,50,0.00,,,0.00,Wunderground v.1.15,2013-04-24 19:35:00,
2013-04-24 14:45:00,46.8,30.6,30.02,WSW,242,13.0,19.0,53,0.00,,,0.00,Wunderground v.1.15,2013-04-24 19:45:00,
2013-04-24 14:50:00,46.6,30.8,30.02,WSW,242,12.0,12.0,54,0.00,,,0.00,Wunderground v.1.15,2013-04-24 19:50:00,
2013-04-24 14:55:00,46.1,30.4,30.02,SW,233,13.0,13.0,54,0.00,,,0.00,Wunderground v.1.15,2013-04-24 19:55:00,
2013-04-24 15:00:00,45.5,28.4,30.02,SW,228,14.0,19.0,51,0.00,,,0.00,Wunderground v.1.15,2013-04-24 20:00:00,
2013-04-24 15:05:00,45.0,29.3,30.02,WSW,251,13.0,19.0,54,0.00,,,0.00,Wunderground v.1.15,2013-04-24 20:05:00,
2013-04-24 15:15:00,45.1,30.3,30.02,SW,218,11.0,16.0,56,0.00,,,0.00,Wunderground v.1.15,2013-04-24 20:15:00,
2013-04-24 15:20:00,45.1,31.2,30.02,WSW,244,12.0,14.0,58,0.00,,,0.00,Wunderground v.1.15,2013-04-24 20:20:00,
2013-04-24 15:25:00,45.1,31.6,30.02,WSW,258,13.0,14.0,59,0.00,,,0.00,Wunderground v.1.15,2013-04-24 20:25:00,
2013-04-24 15:30:00,44.9,31.0,30.02,WSW,258,14.0,16.0,58,0.00,,,0.00,Wunderground v.1.15,2013-04-24 20:30:00,
2013-04-24 15:35:00,44.6,31.6,30.02,SW,232,14.0,16.0,60,0.00,,,0.00,Wunderground v.1.15,2013-04-24 20:35:00,
2013-04-24 15:40:00,44.3,31.7,30.02,WSW,237,13.0,13.0,61,0.00,,,0.00,Wunderground v.1.15,2013-04-24 20:40:00,
2013-04-24 15:50:00,43.8,32.4,30.02,WSW,239,12.0,12.0,64,0.00,,,0.00,Wunderground v.1.15,2013-04-24 20:50:00,
2013-04-24 15:55:00,43.7,33.1,30.02,WSW,257,12.0,12.0,66,0.00,,,0.00,Wunderground v.1.15,2013-04-24 20:55:00,
2013-04-24 16:00:00,43.5,32.5,30.02,WNW,301,10.0,10.0,65,0.00,,,0.00,Wunderground v.1.15,2013-04-24 21:00:00,
2013-04-24 16:05:00,43.4,32.4,30.02,West,266,9.0,10.0,65,0.00,,,0.00,Wunderground v.1.15,2013-04-24 21:05:00,
2013-04-24 16:15:00,43.1,33.3,30.02,NW,312,8.0,10.0,68,0.00,,,0.00,Wunderground v.1.15,2013-04-24 21:15:00,
2013-04-24 16:20:00,42.8,33.7,30.03,West,269,9.0,9.0,70,0.00,,,0.00,Wunderground v.1.15,2013-04-24 21:20:00,
2013-04-24 16:25:00,41.9,34.2,30.02,West,274,10.0,10.0,74,0.00,,,0.00,Wunderground v.1.15,2013-04-24 21:25:00,
2013-04-24 16:30:00,41.6,34.6,30.03,NW,304,9.0,9.0,76,0.00,,,0.00,Wunderground v.1.15,2013-04-24 21:30:00,
2013-04-24 16:35:00,41.2,35.5,30.03,West,276,9.0,9.0,80,0.00,,,0.00,Wunderground v.1.15,2013-04-24 21:35:00,
2013-04-24 16:40:00,40.7,35.6,30.03,WNW,297,9.0,10.0,82,0.00,,,0.00,Wunderground v.1.15,2013-04-24 21:40:00,
2013-04-24 16:45:00,40.4,35.0,30.03,WNW,282,8.0,10.0,81,0.00,,,0.00,Wunderground v.1.15,2013-04-24 21:45:00,
2013-04-24 16:50:00,40.3,34.9,30.03,WNW,285,9.0,13.0,81,0.00,,,0.00,Wunderground v.1.15,2013-04-24 21:50:00,
2013-04-24 16:55:00,38.7,34.3,30.04,WNW,301,9.0,13.0,84,0.00,,,0.00,Wunderground v.1.15,2013-04-24 21:55:00,
2013-04-24 17:00:00,37.1,33.6,30.04,NW,310,7.0,11.0,87,0.00,,,0.00,Wunderground v.1.15,2013-04-24 22:00:00,
2013-04-24 17:05:00,36.3,33.4,30.04,NW,306,7.0,11.0,89,0.00,,,0.00,Wunderground v.1.15,2013-04-24 22:05:00,
2013-04-24 17:15:00,35.9,33.5,30.04,NW,318,4.0,6.0,91,0.00,,,0.00,Wunderground v.1.15,2013-04-24 22:15:00,
2013-04-24 17:20:00,35.7,33.6,30.04,NW,314,4.0,4.0,92,0.00,,,0.00,Wunderground v.1.15,2013-04-24 22:20:00,
2013-04-24 17:25:00,35.7,33.6,30.03,NW,322,4.0,4.0,92,0.00,,,0.01,Wunderground v.1.15,2013-04-24 22:25:00,
2013-04-24 17:30:00,35.7,33.9,30.03,NW,308,3.0,3.0,93,0.00,,,0.01,Wunderground v.1.15,2013-04-24 22:30:00,
2013-04-24 17:35:00,35.6,33.8,30.03,West,266,3.0,5.0,93,0.00,,,0.01,Wunderground v.1.15,2013-04-24 22:35:00,
2013-04-24 17:40:00,35.5,33.7,30.03,NW,305,4.0,5.0,93,0.00,,,0.01,Wunderground v.1.15,2013-04-24 22:40:00,
2013-04-24 17:45:00,35.5,33.7,30.03,West,276,4.0,5.0,93,0.00,,,0.01,Wunderground v.1.15,2013-04-24 22:45:00,
2013-04-24 17:50:00,35.4,33.6,30.03,WNW,300,4.0,4.0,93,0.00,,,0.02,Wunderground v.1.15,2013-04-24 22:50:00,
2013-04-24 17:55:00,35.5,33.7,30.03,NW,312,4.0,4.0,93,0.00,,,0.02,Wunderground v.1.15,2013-04-24 22:55:00,
2013-04-24 18:05:00,35.6,34.0,30.03,West,262,4.0,5.0,94,0.00,,,0.02,Wunderground v.1.15,2013-04-24 23:05:00,
2013-04-24 18:15:00,36.3,34.7,30.03,WNW,297,3.0,4.0,94,0.00,,,0.02,Wunderground v.1.15,2013-04-24 23:15:00,
2013-04-24 18:25:00,36.8,35.0,30.02,WNW,295,2.0,2.0,93,0.00,,,0.02,Wunderground v.1.15,2013-04-24 23:25:00,
2013-04-24 18:30:00,37.1,35.0,30.01,West,265,1.0,1.0,92,0.00,,,0.02,Wunderground v.1.15,2013-04-24 23:30:00,
2013-04-24 18:35:00,37.6,35.5,30.02,West,266,2.0,5.0,92,0.00,,,0.02,Wunderground v.1.15,2013-04-24 23:35:00,
2013-04-24 18:40:00,38.0,35.6,30.02,West,276,3.0,4.0,91,0.00,,,0.02,Wunderground v.1.15,2013-04-24 23:40:00,
2013-04-24 18:45:00,38.2,35.5,30.02,West,264,5.0,6.0,90,0.00,,,0.02,Wunderground v.1.15,2013-04-24 23:45:00,
2013-04-24 18:50:00,38.2,35.5,30.02,WNW,283,5.0,5.0,90,0.00,,,0.02,Wunderground v.1.15,2013-04-24 23:50:00,
2013-04-24 18:55:00,38.3,35.6,30.03,WNW,295,4.0,5.0,90,0.00,,,0.02,Wunderground v.1.15,2013-04-24 23:55:00,
2013-04-24 19:00:00,38.4,35.7,30.03,West,268,4.0,4.0,90,0.00,,,0.02,Wunderground v.1.15,2013-04-25 00:00:00,
2013-04-24 19:05:00,38.6,35.9,30.03,West,276,6.0,6.0,90,0.00,,,0.02,Wunderground v.1.15,2013-04-25 00:05:00,
2013-04-24 19:15:00,38.4,35.4,30.03,WSW,246,5.0,9.0,89,0.00,,,0.02,Wunderground v.1.15,2013-04-25 00:15:00,
2013-04-24 19:20:00,38.4,35.4,30.04,West,269,7.0,7.0,89,0.00,,,0.02,Wunderground v.1.15,2013-04-25 00:20:00,
2013-04-24 19:25:00,38.5,35.5,30.03,WSW,245,7.0,8.0,89,0.00,,,0.02,Wunderground v.1.15,2013-04-25 00:25:00,
2013-04-24 19:30:00,38.5,35.5,30.03,West,262,7.0,7.0,89,0.00,,,0.02,Wunderground v.1.15,2013-04-25 00:30:00,
2013-04-24 19:35:00,38.6,35.6,30.03,WSW,243,6.0,7.0,89,0.00,,,0.02,Wunderground v.1.15,2013-04-25 00:35:00,
2013-04-24 19:40:00,38.7,35.7,30.03,WSW,241,6.0,6.0,89,0.00,,,0.02,Wunderground v.1.15,2013-04-25 00:40:00,
2013-04-24 19:45:00,38.7,35.7,30.03,WSW,253,5.0,11.0,89,0.00,,,0.02,Wunderground v.1.15,2013-04-25 00:45:00,
2013-04-24 19:55:00,38.7,35.5,30.03,SW,231,6.0,6.0,88,0.00,,,0.02,Wunderground v.1.15,2013-04-25 00:55:00,
2013-04-24 20:00:00,38.7,35.5,30.03,SW,235,6.0,6.0,88,0.00,,,0.02,Wunderground v.1.15,2013-04-25 01:00:00,
2013-04-24 20:05:00,38.6,35.4,30.03,WSW,253,7.0,7.0,88,0.00,,,0.02,Wunderground v.1.15,2013-04-25 01:05:00,
2013-04-24 20:15:00,38.3,35.1,30.04,SW,229,7.0,7.0,88,0.00,,,0.02,Wunderground v.1.15,2013-04-25 01:15:00,
2013-04-24 20:20:00,38.1,34.9,30.03,WSW,239,6.0,6.0,88,0.00,,,0.02,Wunderground v.1.15,2013-04-25 01:20:00,
2013-04-24 20:25:00,37.9,34.7,30.04,West,260,6.0,6.0,88,0.00,,,0.02,Wunderground v.1.15,2013-04-25 01:25:00,
2013-04-24 20:35:00,37.5,34.3,30.04,SW,217,5.0,6.0,88,0.00,,,0.02,Wunderground v.1.15,2013-04-25 01:35:00,
2013-04-24 20:40:00,37.3,34.4,30.04,WSW,242,6.0,7.0,89,0.00,,,0.02,Wunderground v.1.15,2013-04-25 01:40:00,
2013-04-24 20:45:00,37.2,34.3,30.05,WSW,241,6.0,7.0,89,0.00,,,0.02,Wunderground v.1.15,2013-04-25 01:45:00,
2013-04-24 20:50:00,37.1,34.2,30.05,WSW,248,6.0,6.0,89,0.00,,,0.02,Wunderground v.1.15,2013-04-25 01:50:00,
2013-04-24 20:55:00,37.1,34.2,30.05,WSW,237,6.0,6.0,89,0.00,,,0.02,Wunderground v.1.15,2013-04-25 01:55:00,
2013-04-24 21:00:00,37.1,34.4,30.05,WSW,245,6.0,7.0,90,0.00,,,0.02,Wunderground v.1.15,2013-04-25 02:00:00,
2013-04-24 21:05:00,37.0,34.3,30.05,WSW,243,7.0,9.0,90,0.00,,,0.02,Wunderground v.1.15,2013-04-25 02:05:00,
2013-04-24 21:15:00,36.9,34.2,30.06,WSW,241,8.0,10.0,90,0.00,,,0.02,Wunderground v.1.15,2013-04-25 02:15:00,
2013-04-24 21:20:00,37.0,34.3,30.06,West,260,8.0,15.0,90,0.00,,,0.02,Wunderground v.1.15,2013-04-25 02:20:00,
2013-04-24 21:25:00,37.2,34.3,30.06,WSW,258,10.0,19.0,89,0.00,,,0.02,Wunderground v.1.15,2013-04-25 02:25:00,
2013-04-24 21:30:00,37.0,33.8,30.07,WSW,255,12.0,16.0,88,0.00,,,0.02,Wunderground v.1.15,2013-04-25 02:30:00,
2013-04-24 21:35:00,36.5,33.3,30.07,WSW,255,12.0,16.0,88,0.00,,,0.02,Wunderground v.1.15,2013-04-25 02:35:00,
2013-04-24 21:40:00,35.8,33.2,30.07,West,276,11.0,11.0,90,0.00,,,0.02,Wunderground v.1.15,2013-04-25 02:40:00,
2013-04-24 21:45:00,35.4,33.0,30.08,WNW,299,11.0,11.0,91,0.00,,,0.02,Wunderground v.1.15,2013-04-25 02:45:00,
2013-04-24 21:50:00,35.3,32.9,30.08,West,279,10.0,11.0,91,0.00,,,0.02,Wunderground v.1.15,2013-04-25 02:50:00,
2013-04-24 21:55:00,35.1,33.0,30.08,WNW,287,9.0,11.0,92,0.00,,,0.02,Wunderground v.1.15,2013-04-25 02:55:00,
2013-04-24 22:00:00,34.8,32.7,30.08,West,272,9.0,11.0,92,0.00,,,0.02,Wunderground v.1.15,2013-04-25 03:00:00,
2013-04-24 22:05:00,34.4,32.3,30.08,WNW,289,9.0,12.0,92,0.00,,,0.02,Wunderground v.1.15,2013-04-25 03:05:00,
2013-04-24 22:15:00,34.0,32.2,30.09,WNW,289,7.0,9.0,93,0.00,,,0.02,Wunderground v.1.15,2013-04-25 03:15:00,
2013-04-24 22:25:00,33.8,32.3,30.09,WNW,284,7.0,10.0,94,0.00,,,0.02,Wunderground v.1.15,2013-04-25 03:25:00,
2013-04-24 22:30:00,33.7,32.2,30.09,NW,313,8.0,8.0,94,0.00,,,0.02,Wunderground v.1.15,2013-04-25 03:30:00,
2013-04-24 22:35:00,33.6,32.1,30.10,WNW,289,7.0,8.0,94,0.00,,,0.02,Wunderground v.1.15,2013-04-25 03:35:00,
2013-04-24 22:40:00,33.4,31.9,30.10,WSW,255,7.0,7.0,94,0.00,,,0.02,Wunderground v.1.15,2013-04-25 03:40:00,
2013-04-24 22:45:00,33.3,31.8,30.10,NW,324,6.0,8.0,94,0.00,,,0.02,Wunderground v.1.15,2013-04-25 03:45:00,
2013-04-24 22:50:00,33.2,31.7,30.10,NW,308,7.0,7.0,94,0.00,,,0.02,Wunderground v.1.15,2013-04-25 03:50:00,
2013-04-24 22:55:00,32.9,31.4,30.10,NNW,339,8.0,8.0,94,0.00,,,0.02,Wunderground v.1.15,2013-04-25 03:55:00,
2013-04-24 23:00:00,32.7,31.2,30.10,WNW,286,8.0,8.0,94,0.00,,,0.02,Wunderground v.1.15,2013-04-25 04:00:00,
2013-04-24 23:05:00,32.6,30.8,30.10,WNW,300,9.0,9.0,93,0.00,,,0.03,Wunderground v.1.15,2013-04-25 04:05:00,
2013-04-24 23:10:00,32.6,30.8,30.10,NW,314,9.0,9.0,93,0.00,,,0.03,Wunderground v.1.15,2013-04-25 04:10:00,
2013-04-24 23:15:00,32.6,30.8,30.11,WNW,295,9.0,9.0,93,0.00,,,0.03,Wunderground v.1.15,2013-04-25 04:15:00,
2013-04-24 23:20:00,32.5,30.4,30.11,West,279,10.0,10.0,92,0.00,,,0.03,Wunderground v.1.15,2013-04-25 04:20:00,
2013-04-24 23:30:00,32.5,29.9,30.11,WNW,293,9.0,9.0,90,0.00,,,0.03,Wunderground v.1.15,2013-04-25 04:30:00,
2013-04-24 23:35:00,32.5,29.9,30.11,WNW,286,7.0,9.0,90,0.00,,,0.03,Wunderground v.1.15,2013-04-25 04:35:00,
2013-04-24 23:40:00,32.5,29.6,30.11,NW,326,7.0,14.0,89,0.00,,,0.03,Wunderground v.1.15,2013-04-25 04:40:00,
2013-04-24 23:45:00,32.5,29.6,30.11,NNW,334,8.0,14.0,89,0.00,,,0.03,Wunderground v.1.15,2013-04-25 04:45:00,
2013-04-24 23:50:00,32.5,29.6,30.11,WNW,297,7.0,11.0,89,0.00,,,0.03,Wunderground v.1.15,2013-04-25 04:50:00,
2013-04-24 23:55:00,32.5,29.6,30.11,WNW,293,8.0,11.0,89,0.00,,,0.03,Wunderground v.1.15,2013-04-25 04:55:00,